Regional Weather Roundup
Issued by NWS

Home | Current Version | Previous Version | Text Only | Print | Product List | Glossary Off
Versions: 1 2 3 4 5 6 7 8 9 10 11 12 13 14 15 16 17 18 19 20 21 22 23 24 25 26 27 28 29 30 31 32 33 34 35 36 37 38 39 40 41 42 43 44 45 46 47 48 49 50

000
ASUS43 KMKX 290100
RWRWI

WISCONSIN REGIONAL WEATHER ROUNDUP
NATIONAL WEATHER SERVICE MILWAUKEE/SULLIVAN WI
800 PM CDT WED JUN 28 2017

NOTE: "FAIR" INDICATES FEW OR NO CLOUDS BELOW 12,000 FEET WITH NO
SIGNIFICANT WEATHER AND/OR OBSTRUCTIONS TO VISIBILITY.

WIZ001-002-006>008-014>016-023>028-290200-
NORTHWEST WISCONSIN

CITY           SKY/WX    TMP DP  RH WIND       PRES   REMARKS
SUPERIOR ARPT  NOT AVBL
ASHLAND        RAIN      65  64  97 E3        29.53S FOG
HAYWARD        CLOUDY    68  65  90 S12       29.52S
SIREN          CLOUDY    69  67  92 S5        29.51S
CUMBERLAND     CLOUDY    68  64  88 S9        29.55R
RICE LAKE      CLOUDY    69  67  94 S9        29.57R
CHETEK           N/A     69  68  97 SW3       29.55S
LADYSMITH      LGT RAIN  69  67  94 S8        29.58S
EAU CLAIRE     CLOUDY    69  66  90 S12       29.55S
MENOMONIE      CLOUDY    69  68  99 SE3       29.56S
NEW RICHMOND   MOCLDY    73  63  70 W5        29.54R
OSCEOLA        CLOUDY    75  66  74 W7        29.55R
$$

WIZ003>005-009-010-017-018-290200-
NORTH CENTRAL WISCONSIN

CITY           SKY/WX    TMP DP  RH WIND       PRES   REMARKS
MANITOWISH WTR CLOUDY    63  63 100 S10       29.60F
ARBOR VITAE    CLOUDY    64  62  96 S10       29.61F FOG
WOODRUFF       CLOUDY    64  62  96 S10       29.61F FOG
RHINELANDER    CLOUDY    64  64 100 S8        29.62F
EAGLE RIVER    DRIZZLE   62  62 100 SE6       29.63S
LAND O LAKES   CLOUDY    63  62  97 SE7       29.64F
PHILLIPS       CLOUDY    65  65 100 S8        29.58S
TOMAHAWK       NOT AVBL
MEDFORD        LGT RAIN  65  64  97 S12       29.61F
MERRILL        DRIZZLE   66  66  99 S5        29.61F
$$

WIZ029-030-035-036-043>047-290200-
CENTRAL WISCONSIN

CITY           SKY/WX    TMP DP  RH WIND       PRES   REMARKS
WAUSAU         LGT RAIN  66  65  96 S10       29.61F FOG
MOSINEE        CLOUDY    66  66 100 S6        29.64F
MARSHFIELD     LGT RAIN  67  64  90 S7        29.60F FOG
STEVENS POINT  MOCLDY    66  66 100 CALM      29.63F
WAUPACA        CLOUDY    69  67  96 SE6       29.62F FOG
WAUTOMA        MOCLDY    66  66 100 W3        29.62F FOG
WISC RAPIDS    CLOUDY    68  66  93 CALM      29.63F
CAMP DOUGLAS   NOT AVBL
$$

WIZ011>013-019>022-031-037>040-048>050-290200-
NORTHEAST WISCONSIN

CITY           SKY/WX    TMP DP  RH WIND       PRES   REMARKS
ANTIGO         CLOUDY    64  64  99 S12       29.64F
SHAWANO        CLOUDY    70  64  83 S3        29.62F
OCONTO         CLOUDY    64  62  93 S7G17     29.65F
STURGEON BAY     N/A     61  60  97 S20G28    29.66F
GREEN BAY      MOCLDY    66  65  96 SE13      29.64F
MANITOWOC      NOT AVBL
APPLETON       CLOUDY    66  66 100 S9        29.63F
CLINTONVILLE   CLOUDY    66  63  88 SE5       29.62F
OSHKOSH        LGT RAIN  68  65  90 S10       29.63F
$$

WIZ032>034-041-042-053>061-290200-
SOUTHWEST WISCONSIN

CITY           SKY/WX    TMP DP  RH WIND       PRES   REMARKS
LA CROSSE      CLOUDY    73  66  78 S9        29.59R
SPARTA         CLOUDY    69  65  88 S3        29.62R
VIROQUA        CLOUDY    67  66  96 SW9       29.62S
BOSCOBEL       CLOUDY    67  64  90 S5        29.64S
PRAIRIE DU CHI CLOUDY    64  63  96 SE5       29.61F
PLATTEVILLE      N/A     66  66 100 W20       29.70R
$$

WIZ056-057-062-063-064-067-068-290200-
SOUTH CENTRAL WISCONSIN

CITY           SKY/WX    TMP DP  RH WIND       PRES   REMARKS
REEDSBURG      CLOUDY    67  67 100 S5        29.61F
BARABOO/DELLS  CLOUDY    68  65  90 SW7       29.62S
LONE ROCK      NOT AVBL
MINERAL POINT  LGT RAIN  64  64 100 SW8       29.68S
MADISON        CLOUDY    65  61  87 S9G26     29.63R THUNDER
MIDDLETON      CLOUDY    66  64  91 S7G29     29.60F
WATERTOWN      TSTM      65  65 100 NW12      29.78R
MONROE         NOT AVBL
JANESVILLE     TSTM      68  66  94 SW17G48   29.69F
$$

WIZ051-052-058>065-066-070>072-290200-
SOUTHEAST WISCONSIN

CITY           SKY/WX    TMP DP  RH WIND       PRES   REMARKS
MILWAUKEE      LGT RAIN  68  61  78 N15       29.74S
WAUKESHA       LGT RAIN  64  59  82 E7        29.74F
MILWAUKEE/TIMM TSTM      63  57  82 N3G10     29.77S
RACINE         MOCLDY    73  63  70 S7        29.74F
KENOSHA        CLOUDY    73  63  70 S10       29.73F
FOND DU LAC    LGT RAIN  68  62  81 S17G28    29.63F
SHEBOYGAN      LGT RAIN  63  63 100 S12       29.68F FOG
WEST BEND      RAIN      63  61  94 S12G22    29.72R
JUNEAU         TSTM      64  60  90 S28G36    29.69F VSB 3/4
$$

LSZ147-162-290200-
LAKE SUPERIOR

STATION/POSITION TIME  TEMP    WIND        PRES    WAVE
                       AIR SEA DIR/SP/G            HT/PER
                 (UTC) (F)     (DEG/KT/KT) (MB)    (FT/S)
W MID LAKE BUOY  2350   46 39   70/ 12/ 14 1002.4F   1
DEVILS ISLAND    0000   56      80/  7/  7 1000.6F
SAXON HARBOR     0040   67     180/  5/  9  999.7F
$$

LMZ867-665-643>646-290200-
LAKE MICHIGAN

STATION/POSITION TIME  TEMP    WIND        PRES    WAVE
                       AIR SEA DIR/SP/G            HT/PER
                 (UTC) (F)     (DEG/KT/KT) (MB)    (FT/S)
CHAMBERS ISLAND  0040   61     130/  6/ 11 1005.1F
S GREEN BAY BUOY 0000   66     180/ 17/ 19 1005.1
N MID LAKE BUOY  2350   56 53  190/ 12/ 14 1008.0F   6/ 7
NORTHPORT PIER   0040   61     160/  9/ 14 1006.1F
KEWAUNEE LAKESHO 0030   56     180/ 15/ 18 1005.3F
SHEBOYGAN LAKESH 0000   56     190/ 19/ 19 1006.3R
PORT WASHINGTON  0040   63     220/  7/ 13 1007.5F
ATWATER BUOY     2309   61 51  180/  4/  6 1007.8F
MILWAUKEE LAKESH 0030   64     320/ 15/ 20   N/A
S MID LAKE BUOY  2350   67 60  180/ 17/ 19 1007.8F   4/ 5
KENOSHA   LAKESH 0000   74     200/ 13/ 19 1006.8
$$

TC  - TEMPERATURE IN CELSIUS
VSB - VISIBILITY IN STATUTE MILES
WCI - WIND CHILL INDEX
HX  - HEAT INDEX





USA.gov is the U.S. government's official web portal to all federal, state and local government web resources and services.